STARLINK-37198, 68386

Orbit data source: Space-Track

STARLINK-37198, 68386 is a payload satellite owned by SpaceX/Seattle (US) in SSO that was launched on Thu, 26 Mar 2026 UTC via an FALCON 9 launch vehicle from the Air Force Western Test Range (AFWTR). Payload-class satellites include a variety of spacecraft equipped with specific instruments for various scientific and technological missions. These include communications satellites like Starlink; space stations such as the ISS; scientific satellites like the Hubble; Earth observation satellites from companies like Planet Labs, Umbra, and HawkEye 360; GPS; miniature CubeSats for education and research; and military/defense satellites.

Loading next visibility...
Identifier
68386, 2026-063G
Orbit
SSO
Country
Flag of USUS
Related business
Manufacturer
SpaceX/Seattle
Mission
Operational spacecraft
Bus & Motor
STARLINK V2MO, Unknown motor
Mass
575 kg wet, ~530 kg dry
Launch date (UTC)
2026-03-26 (3 months ago)
Launch vehicle
FALCON 9
Launch site
Air Force Western Test Range (AFWTR)
Object type
Payload
Rocket body
Debris
Shape & HBR
Unknown shape, 17.7 m
Radar Cross Section
Large (>1 m²)

Expand to show TLE details & history
Last TLE update: 18 hours ago

TLE from 18 hours ago
0 STARLINK-37198
1 68386U 26063G   26165.35282045  .00028791  00000-0  89047-3 0  9995
2 68386  97.2851 307.6998 0000956  65.0739 295.0603 15.33454729 12716
Epoch: 2026-06-14T08:28Z
TLE epoch observation values (Epoch: 2026-06-14T08:28:03.686Z)
Latitude
-0.00005°
Longitude
-81.97034°
Altitude
468.349 km
Speed
7.632 km/s
True Right ascension
20h 30m 47s
True Declination
0° 00' 00"
Sunlit
Object was in full shadow at epoch
Visualization orbit readout
Latitude
Unknown
Longitude
Unknown
Altitude
Unknown
Speed
Unknown
Apparent Right ascension
Unknown
Apparent Declination
Unknown
Sunlit
N/A
Visualization observer readout
Local Sidereal Time
13:02:47
Azimuth
Unknown
Elevation
Unknown
Doppler factor
Unknown
Orbital elements
Apogee altitude
463.111 km
Perigee altitude
461.803 km
Semi-major axis
6,840.594 km
Eccentricity
0.0001
Inclination
97.2851°
RAAN
307.6998°
Arg. of periapsis
65.0739°
True anomaly
295.05038°
Mean anomaly
295.0603°
Eccentric anomaly
295.05534°
Mean motion
3.83621 °/min
Orbital period
93.84 mins
BSTAR
0.00089047
Loading maneuver chart data...
Computing Atmospheric mass density...
Loading historical data...
Loading historical data...
Loading historical data...
Loading historical data...
Loading historical data...
Loading historical data...
Loading historical data...

Documentation

Showing up to 5 results
|